Location: Newark
(44.6028°N, 124.0883°W)
Time: 23:30:26
(UTC+00:00)

N. Korean satellite - Pass Details

Date: 28 October 2020
Orbit: 452 x 504 km, 97.2° (Epoch: 24 November)

Event Time Altitude Azimuth Distance (km) Brightness Sun altitude
Rises 12:49:43 0° 32° (NNE) 2,476 10.6 -21.8°
Reaches altitude 10° 12:52:34 10° 59° (ENE) 1,594 10.0 -21.3°
Maximum altitude 12:54:25 14° 92° (E) 1,369 9.9 -21.0°
Drops below altitude 10° 12:56:15 10° 125° (SE) 1,587 9.9 -20.7°
Sets 12:59:05 0° 152° (SSE) 2,456 10.5 -20.2°
